Location: Hampton-Harmon Observatory
(35.9871°N, 80.3709°W)
Time: 18:30:46
(UTC-04:00)

N. Korean satellite - Visible Passes

Search period start: 23 March 2019 00:00
Search period end: 02 April 2019 00:00
Orbit: 456 x 510 km, 97.2° (Epoch: 22 March)

Date Brightness Start Highest point End Pass type
(mag) Time Alt. Az. Time Alt. Az. Time Alt. Az.
23 Mar 9.9 06:36:20 10° ENE 06:38:29 15° E 06:40:39 10° SE visible
27 Mar 10.1 06:30:49 10° ENE 06:32:34 13° E 06:34:19 10° ESE visible
31 Mar 10.3 06:25:29 10° ENE 06:26:36 11° E 06:27:43 10° ESE visible
